This demonstration page uses our WeatherBlox Daily Observations layout. Learn more.

Left ArrowRight Arrow

Hourly Observations for September 1, 2020

Temp ( °F °C ) Dew Point ( °F °C ) Humidity (%) Winds ( mph kmh ) Pressure ( in mb ) Visibility ( mi km ) Precip ( " mm )
12:53 am 00:53 Clear 74 23.3 50 10 43 43 NNW 3 6 29.79 1009 10 16 0.00 0.00
1:53 am 01:53 Clear 87 30.6 43 6.1 21 21 N 10 17 29.80 1009 10 16 0.00 0.00
2:53 am 02:53 Clear 87 30.6 39 3.9 18 18 N 16 26 29.80 1009 10 16 0.00 0.00
3:53 am 03:53 Clear 87 30.6 39 3.9 18 18 N 14 22 29.82 1010 10 16 0.00 0.00
4:53 am 04:53 Clear 85 29.4 40 4.4 20 20 N 21 33 29.82 1010 10 16 0.00 0.00
5:53 am 05:53 Clear 85 29.4 39 3.9 20 20 N 18 30 29.83 1010 10 16 0.00 0.00
6:53 am 06:53 Sunny 83 28.3 39 3.9 21 21 N 18 30 29.85 1011 10 16 0.00 0.00
7:53 am 07:53 Sunny 84 28.9 39 3.9 20 20 N 17 28 29.87 1011 10 16 0.00 0.00
8:53 am 08:53 Sunny 87 30.6 38 3.3 18 18 N 21 33 29.87 1012 10 16 0.00 0.00
9:53 am 09:53 undefined 90 32.2 38 3.3 16 16 N 16 26 29.89 1012 10 16 0.00 0.00
10:53 am 10:53 Sunny 94 34.4 36 2.2 13 13 N 21 33 29.89 1012 10 16 0.00 0.00
11:53 am 11:53 Sunny 96 35.6 36 2.2 12 12 N 17 28 29.88 1012 10 16 0.00 0.00
12:53 pm 12:53 Sunny 100 37.8 33 0.6 10 10 NNE 10 17 29.85 1011 10 16 0.00 0.00
1:53 pm 13:53 Sunny 102 38.9 33 0.6 9 9 N 12 19 29.83 1010 10 16 0.00 0.00
2:53 pm 14:53 Sunny 105 40.6 35 1.7 9 9 NNW 10 17 29.80 1009 10 16 0.00 0.00
3:53 pm 15:53 Sunny 105 40.6 35 1.7 9 9 NNW 9 15 29.78 1009 10 16 0.00 0.00
4:53 pm 16:53 Sunny 106 41.1 35 1.7 9 9 NNW 9 15 29.76 1008 10 16 0.00 0.00
5:53 pm 17:53 Sunny 107 41.7 37 2.8 9 9 VRB 6 9 29.74 1007 10 16 0.00 0.00
6:53 pm 18:53 Sunny 104 40 40 4.4 11 11 W 6 9 29.74 1007 10 16 0.00 0.00
7:53 pm 19:53 Clear 96 35.6 43 6.1 16 16 W 5 7 29.74 1007 10 16 0.00 0.00
8:53 pm 20:53 Clear 91 32.8 47 8.3 22 22 S 16 26 29.78 1009 10 16 0.00 0.00
9:53 pm 21:53 Clear 88 31.1 56 13.3 34 34 SSE 13 20 29.82 1010 10 16 0.00 0.00
10:53 pm 22:53 Clear 84 28.9 56 13.3 38 38 Calm 29.86 1011 9 14 0.00 0.00
11:53 pm 23:53 Clear 82 27.8 56 13.3 41 41 WSW 3 6 29.88 1012 8 13 0.00 0.00

Powered by AerisWeather